SV4RJA-13 Weather Reports


Display with metric or nautical units.
time (UTC)temp
F
wind
direction
speed
MPH
gust
MPH
rain 1hr
in
rain 24hr
in
rain mn
in
humidity
%
barometer
mb
20260507222912 62 0.0 0.0 0.00 0.00 0.00 10 1018.2
20260507221913 63 0.0 0.0 0.00 0.00 0.00 10 1018.2
20260507220913 62 0.0 0.0 0.00 0.00 0.00 10 1018.2
20260507215912 63 0.0 0.0 0.00 0.00 0.00 10 1018.2
20260507214913 63 0.0 0.0 0.00 0.00 0.00 10 1018.3
20260507213912 63 0.0 0.0 0.00 0.00 0.00 10 1018.5
20260507212913 64 0.0 0.0 0.00 0.00 0.00 10 1018.4
20260507211913 64 0.0 0.0 0.00 0.00 0.00 10 1018.6
20260507205913 64 0.0 0.0 0.00 0.00 0.00 10 1018.5
20260507204912 64 0.0 0.0 0.00 0.00 0.00 10 1018.5
20260507203912 64 0.0 0.0 0.00 0.00 0.00 10 1018.5
20260507202911 66 0.0 0.0 0.00 0.00 0.00 10 1018.4
20260507201911 66 0.0 0.0 0.00 0.00 0.00 10 1018.4
20260507200912 66 0.0 0.0 0.00 0.00 0.00 10 1018.4
20260507195912 66 0.0 0.0 0.00 0.00 0.00 10 1018.5
20260507194911 66 0.0 0.0 0.00 0.00 0.00 10 1018.5
20260507192912 65 0.0 0.0 0.00 0.00 0.00 10 1018.5
20260507191912 66 0.0 0.0 0.00 0.00 0.00 10 1018.3
20260507190912 65 0.0 0.0 0.00 0.00 0.00 10 1018.4
20260507185912 67 0.0 0.0 0.00 0.00 0.00 99 1018.2
20260507184913 67 0.0 0.0 0.00 0.00 0.00 96 1018.0
20260507183913 67 0.0 0.0 0.00 0.00 0.00 96 1017.8
20260507182912 67 0.0 0.0 0.00 0.00 0.00 97 1017.9
20260507181913 68 0.0 0.0 0.00 0.00 0.00 96 1017.9
20260507180913 68 0.0 0.0 0.00 0.00 0.00 96 1017.8
20260507175913 68 0.0 0.0 0.00 0.00 0.00 95 1017.7
20260507174913 69 0.0 0.0 0.00 0.00 0.00 93 1017.7
20260507173913 69 0.0 0.0 0.00 0.00 0.00 92 1017.6
20260507172913 69 0.0 0.0 0.00 0.00 0.00 92 1017.8
20260507171913 70 0.0 0.0 0.00 0.00 0.00 89 1017.9
20260507170912 70 0.0 0.0 0.00 0.00 0.00 86 1017.9
20260507163912 71 0.0 0.0 0.00 0.00 0.00 78 1017.8
20260507162913 72 0.0 0.0 0.00 0.00 0.00 78 1017.8
20260507161912 72 0.0 0.0 0.00 0.00 0.00 82 1017.8
20260507160913 72 0.0 0.0 0.00 0.00 0.00 83 1017.7
20260507155913 73 0.0 0.0 0.00 0.00 0.00 79 1017.6
20260507154913 72 0.0 0.0 0.00 0.00 0.00 79 1017.7
20260507153913 72 0.0 0.0 0.00 0.00 0.00 79 1017.6
20260507152913 72 0.0 0.0 0.00 0.00 0.00 78 1017.9
20260507151913 73 0.0 0.0 0.00 0.00 0.00 74 1017.9
20260507150920 74 0.0 0.0 0.00 0.00 0.00 74 1017.9
20260507144913 73 0.0 0.0 0.00 0.00 0.00 71 1017.9
20260507143912 72 0.0 0.0 0.00 0.00 0.00 74 1017.8
20260507142911 74 0.0 0.0 0.00 0.00 0.00 68 1017.8
20260507141912 74 0.0 0.0 0.00 0.00 0.00 72 1017.8
20260507140913 75 0.0 0.0 0.00 0.00 0.00 65 1017.7
20260507135912 75 0.0 0.0 0.00 0.00 0.00 65 1017.8
20260507132912 73 0.0 0.0 0.00 0.00 0.00 66 1017.7
20260507131912 74 0.0 0.0 0.00 0.00 0.00 65 1017.9
20260507130912 75 0.0 0.0 0.00 0.00 0.00 55 1017.9
20260507125913 76 0.0 0.0 0.00 0.00 0.00 58 1018.0
20260507124912 78 0.0 0.0 0.00 0.00 0.00 50 1018.0
20260507123912 75 0.0 0.0 0.00 0.00 0.00 58 1018.3
20260507122912 74 0.0 0.0 0.00 0.00 0.00 64 1018.3
20260507121913 75 0.0 0.0 0.00 0.00 0.00 67 1018.1
20260507120912 75 0.0 0.0 0.00 0.00 0.00 67 1018.4
20260507115912 76 0.0 0.0 0.00 0.00 0.00 65 1018.5
20260507114913 75 0.0 0.0 0.00 0.00 0.00 64 1018.8
20260507113913 75 0.0 0.0 0.00 0.00 0.00 61 1019.1
20260507112913 76 0.0 0.0 0.00 0.00 0.00 54 1019.1
20260507111912 76 0.0 0.0 0.00 0.00 0.00 58 1019.2
20260507105912 72 0.0 0.0 0.00 0.00 0.00 68 1018.9
20260507104912 72 0.0 0.0 0.00 0.00 0.00 71 1018.7
20260507103912 72 0.0 0.0 0.00 0.00 0.00 73 1018.7
20260507102912 72 0.0 0.0 0.00 0.00 0.00 71 1018.4
20260507101911 72 0.0 0.0 0.00 0.00 0.00 64 1018.2
20260507100912 72 0.0 0.0 0.00 0.00 0.00 62 1018.5
20260507095913 74 0.0 0.0 0.00 0.00 0.00 59 1018.5
20260507094913 75 0.0 0.0 0.00 0.00 0.00 53 1018.6
20260507093913 77 0.0 0.0 0.00 0.00 0.00 49 1018.5
20260507092913 78 0.0 0.0 0.00 0.00 0.00 50 1018.4
20260507091913 79 0.0 0.0 0.00 0.00 0.00 50 1018.3
20260507090911 79 0.0 0.0 0.00 0.00 0.00 54 1018.3
20260507084912 77 0.0 0.0 0.00 0.00 0.00 57 1018.3
20260507083912 77 0.0 0.0 0.00 0.00 0.00 53 1018.3
20260507082911 77 0.0 0.0 0.00 0.00 0.00 52 1018.1
20260507080913 79 0.0 0.0 0.00 0.00 0.00 51 1018.1
20260507075911 79 0.0 0.0 0.00 0.00 0.00 48 1018.0
20260507073912 78 0.0 0.0 0.00 0.00 0.00 51 1017.7
20260507071912 78 0.0 0.0 0.00 0.00 0.00 54 1017.9
20260507070912 78 0.0 0.0 0.00 0.00 0.00 51 1018.0
20260507064913 77 0.0 0.0 0.00 0.00 0.00 59 1018.1
20260507063912 75 0.0 0.0 0.00 0.00 0.00 63 1018.2
20260507062914 74 0.0 0.0 0.00 0.00 0.00 65 1018.2
20260507061913 74 0.0 0.0 0.00 0.00 0.00 66 1018.1
20260507060912 74 0.0 0.0 0.00 0.00 0.00 67 1017.8
20260507054913 74 0.0 0.0 0.00 0.00 0.00 67 1017.7
20260507053913 72 0.0 0.0 0.00 0.00 0.00 62 1017.5
20260507052914 68 0.0 0.0 0.00 0.00 0.00 78 1017.5
20260507051914 65 0.0 0.0 0.00 0.00 0.00 86 1017.4
20260507050914 62 0.0 0.0 0.00 0.00 0.00 10 1017.4
20260507045913 60 0.0 0.0 0.00 0.00 0.00 10 1017.1
20260507044912 60 0.0 0.0 0.00 0.00 0.00 10 1017.0
20260507043911 60 0.0 0.0 0.00 0.00 0.00 10 1017.1
20260507041912 61 0.0 0.0 0.00 0.00 0.00 98 1017.2
20260507040913 59 0.0 0.0 0.00 0.00 0.00 10 1017.1
20260507035912 58 0.0 0.0 0.00 0.00 0.00 10 1017.2
20260507034913 57 0.0 0.0 0.00 0.00 0.00 10 1017.1
20260507033912 58 0.0 0.0 0.00 0.00 0.00 10 1017.1
20260507031912 57 0.0 0.0 0.00 0.00 0.00 10 1016.3
20260507030913 57 0.0 0.0 0.00 0.00 0.00 10 1016.7
20260507025912 56 0.0 0.0 0.00 0.00 0.00 10 1016.7
20260507024913 56 0.0 0.0 0.00 0.00 0.00 10 1016.7
20260507023912 58 0.0 0.0 0.00 0.00 0.00 10 1016.6
20260507015913 57 0.0 0.0 0.00 0.00 0.00 10 1016.4
20260507014911 57 0.0 0.0 0.00 0.00 0.00 10 1016.0
20260507012913 58 0.0 0.0 0.00 0.00 0.00 10 1016.1
20260507011912 60 0.0 0.0 0.00 0.00 0.00 10 1016.1
20260507010912 59 0.0 0.0 0.00 0.00 0.00 10 1016.0
20260507005912 58 0.0 0.0 0.00 0.00 0.00 10 1015.8
20260507004913 58 0.0 0.0 0.00 0.00 0.00 10 1016.0
20260507003912 57 0.0 0.0 0.00 0.00 0.00 10 1015.6
20260507002912 57 0.0 0.0 0.00 0.00 0.00 10 1015.6
20260507001912 58 0.0 0.0 0.00 0.00 0.00 10 1015.8
20260507000911 58 0.0 0.0 0.00 0.00 0.00 10 1015.8
20260506235911 60 0.0 0.0 0.00 0.00 0.00 99 1015.7
20260506234912 61 0.0 0.0 0.00 0.00 0.00 96 1016.0
20260506233912 60 0.0 0.0 0.00 0.00 0.00 10 1016.1
20260506232913 60 0.0 0.0 0.00 0.00 0.00 10 1016.1
20260506231912 59 0.0 0.0 0.00 0.00 0.00 10 1016.3
20260506230912 60 0.0 0.0 0.00 0.00 0.00 10 1016.2
20260506225912 61 0.0 0.0 0.00 0.00 0.00 10 1016.2
20260506224912 61 0.0 0.0 0.00 0.00 0.00 10 1016.2
20260506223913 62 0.0 0.0 0.00 0.00 0.00 99 1016.3